Stations météo

Publicité
Limoges, France (7434): Température de l'air & dewpoint: 12.09.2018 18:00:00 - 18.09.2018 18:00:00 (CEST)Limoges, France (7434): Température de l'air 5cm: 12.09.2018 18:00:00 - 18.09.2018 18:00:00 (CEST)Limoges, France (7434): Température de l'air -20cm & Température de l'air -100cm: 12.09.2018 18:00:00 - 18.09.2018 18:00:00 (CEST)Limoges, France (7434): Vitesse du vent & gusts: 12.09.2018 18:00:00 - 18.09.2018 18:00:00 (CEST)Limoges, France (7434): Direction du vent: 12.09.2018 18:00:00 - 18.09.2018 18:00:00 (CEST)Limoges, France (7434): reduced air pressure: 12.09.2018 18:00:00 - 18.09.2018 18:00:00 (CEST)Limoges, France (7434): visibility: 12.09.2018 18:00:00 - 18.09.2018 18:00:00 (CEST)Limoges, France (7434): Ensoleillement: 12.09.2018 18:00:00 - 18.09.2018 18:00:00 (CEST)Limoges, France (7434): Quantités de précipitations: 12.09.2018 18:00:00 - 18.09.2018 18:00:00 (CEST)
Date & Time tt [°C] td [°C] tt 5cm [°C] tt -20cm [°C] tt -100cm [°C] ff [km/h] ff [knt] fx [km/h] fx [knt] dd ppp [hPa] vv [km] sd [min] rr [mm]
18.09.2018 18:00:00 21,2 16,8 18,7 20,4 19,7 5 3 13 7 N 1016,7 30 17 0,2
18.09.2018 17:00:00 19,6 17,4 18,9 20,3 19,8 7 4 15 8 NNW 1017,1 13 0 0,0
18.09.2018 16:00:00 19,8 17,2 19,1 20,3 19,8 7 4 10 6 NW 1017,2 15 0 0,4
18.09.2018 15:00:00 20,3 16,5 19,6 20,3 19,8 6 3 16 9 N 1017,3 27 0 0,0
18.09.2018 14:00:00 20,5 15,7 22,4 20,2 19,8 10 5 27 15 SSW 1017,7 33 0 0,0
18.09.2018 13:00:00 20,8 15,6 24,3 20,3 19,8 10 6 31 17 SSW 1017,4 31 0 0,0
18.09.2018 12:00:00 20,9 15,7 24,2 20,3 19,8 23 12 37 20 SSW 1018,0 38 11 0,0
18.09.2018 11:00:00 20,9 14,3 23,6 20,3 19,8 18 10 33 18 S 1017,5 40 31 0,0
18.09.2018 10:00:00 20,2 13,9 18,4 20,4 19,8 16 8 27 15 SSE 1016,9 31 60 0,0
18.09.2018 09:00:00 18,3 12,7 15,2 20,5 19,8 8 5 16 8 SE 1016,8 28 49 0,0
18.09.2018 08:00:00 16,7 12,2 15,1 20,5 19,8 9 5 14 8 E 1016,5 39 0 0,0
18.09.2018 07:00:00 17,4 12,7 15,2 20,6 19,7 9 5 17 9 ESE 1016,1 43 0 0,0
18.09.2018 06:00:00 17,9 12,8 15,4 20,6 19,8 10 6 24 13 S 1016,0 47 0 0,0
18.09.2018 05:00:00 18,6 13,0 16,0 20,7 19,8 13 7 23 12 S 1015,8 49 0 0,0
18.09.2018 04:00:00 19,4 13,1 16,6 20,8 19,8 14 7 25 14 S 1015,5 53 0 0,0
18.09.2018 03:00:00 20,1 13,3 17,4 20,8 19,8 14 7 27 15 S 1015,2 55 0 0,0
18.09.2018 02:00:00 20,7 13,2 17,7 20,9 19,8 11 6 24 13 SSE 1015,0 58 0 0,0
18.09.2018 01:00:00 21,1 13,3 17,8 20,9 19,8 14 8 25 13 S 1015,0 56 0 0,0
18.09.2018 00:00:00 21,7 13,1 18,0 20,9 19,8 9 5 23 12 S 1014,8 56 0 0,0
17.09.2018 23:00:00 22,7 12,9 15,9 20,9 19,8 3 1 17 9 SSE 1014,4 57 0 0,0
17.09.2018 22:00:00 22,7 12,9 16,0 20,9 19,8 3 1 6 3 SSW 1014,0 60 0 0,0
17.09.2018 21:00:00 23,8 12,7 17,5 20,8 19,8 4 2 9 5 SSW 1013,5 60 0 0,0
17.09.2018 20:00:00 25,8 13,3 20,3 20,7 19,8 8 4 22 12 SSW 1013,0 55 25 0,0
17.09.2018 19:00:00 28,0 13,1 27,7 20,5 19,8 14 8 31 17 SW 1012,9 34 60 0,0
17.09.2018 18:00:00 29,1 13,3 31,7 20,4 19,8 20 11 35 19 S 1012,9 24 60 0,0
17.09.2018 17:00:00 29,2 13,8 33,5 20,2 19,8 21 11 42 23 S 1013,4 22 60 0,0
17.09.2018 16:00:00 29,0 13,6 35,2 20,0 19,8 17 9 39 21 SSE 1014,2 22 60 0,0
17.09.2018 15:00:00 28,3 13,4 33,9 19,9 19,8 24 13 37 20 S 1014,9 27 60 0,0
17.09.2018 14:00:00 27,4 13,3 33,5 19,8 19,8 15 8 35 19 SSE 1016,0 34 60 0,0
17.09.2018 13:00:00 26,3 13,4 32,4 19,8 19,8 13 7 30 16 SSE 1016,9 39 60 0,0
17.09.2018 12:00:00 24,6 13,8 28,8 19,8 19,8 18 10 30 16 SSE 1017,8 46 60 0,0
17.09.2018 11:00:00 21,0 12,2 23,7 19,8 19,8 11 6 22 12 SE 1018,6 53 60 0,0
17.09.2018 10:00:00 18,5 10,1 16,3 19,9 19,9 12 7 19 10 ESE 1019,1 57 60 0,0
17.09.2018 09:00:00 15,7 9,1 12,9 20,0 19,9 8 4 14 8 ENE 1019,5 55 46 0,0
17.09.2018 08:00:00 14,3 8,0 12,4 20,1 19,9 8 5 12 6 ENE 1019,7 46 3 0,0
17.09.2018 07:00:00 14,6 8,1 12,3 20,2 19,8 5 3 13 7 ENE 1019,8 60 0 0,0
17.09.2018 06:00:00 14,5 8,4 12,7 20,3 19,9 9 5 15 8 NNE 1019,7 60 0 0,0
17.09.2018 05:00:00 15,2 8,4 13,2 20,4 19,9 10 5 15 8 NE 1019,8 60 0 0,0
17.09.2018 04:00:00 16,2 8,2 14,1 20,4 19,9 9 5 14 7 NE 1019,9 60 0 0,0
17.09.2018 03:00:00 16,5 7,4 14,0 20,5 19,9 10 5 17 9 NE 1020,1 60 0 0,0
17.09.2018 02:00:00 17,1 8,2 14,6 20,6 19,9 7 4 11 6 NNE 1020,4 60 0 0,0
17.09.2018 01:00:00 18,1 8,1 15,1 20,6 19,9 8 5 11 6 NE 1020,3 60 0 0,0
17.09.2018 00:00:00 19,1 6,6 12,0 20,7 19,9 5 3 7 4 NE 1020,5 60 0 0,0
16.09.2018 23:00:00 19,2 5,6 12,0 20,7 19,9 4 2 12 7 N 1020,7 60 0 0,0
16.09.2018 22:00:00 20,5 6,4 14,1 20,7 19,9 8 5 14 8 NNW 1020,2 60 0 0,0
16.09.2018 21:00:00 20,6 6,9 14,9 20,6 19,9 10 5 14 8 NW 1020,1 60 0 0,0
16.09.2018 20:00:00 21,9 7,7 16,9 20,5 19,9 6 4 9 5 WNW 1019,4 54 0 0,0
16.09.2018 19:00:00 24,0 7,6 23,3 20,4 19,9 6 3 15 8 WNW 1018,9 60 36 0,0
16.09.2018 18:00:00 25,0 6,7 26,3 20,2 19,9 8 4 18 10 WNW 1018,6 60 18 0,0
16.09.2018 17:00:00 26,0 7,1 29,1 20,0 19,9 8 4 29 15 W 1018,3 29 54 0,0
16.09.2018 16:00:00 26,0 7,1 32,7 19,9 19,9 13 7 27 15 WSW 1018,5 19 60 0,0
16.09.2018 15:00:00 25,8 6,9 34,1 19,8 19,9 13 7 29 16 WSW 1018,7 38 60 0,0
16.09.2018 14:00:00 25,0 7,6 31,6 19,7 19,9 15 8 31 17 SSW 1019,0 45 60 0,0
16.09.2018 13:00:00 23,7 10,0 31,8 19,7 19,9 14 8 29 16 S 1019,5 56 60 0,0
16.09.2018 12:00:00 22,0 8,8 29,6 19,7 19,9 11 6 25 14 SSW 1020,2 20 60 0,0
16.09.2018 11:00:00 19,9 9,2 24,1 19,8 19,9 7 4 18 10 SSE 1020,4 57 60 0,0
16.09.2018 10:00:00 17,8 8,6 14,7 19,9 19,9 9 5 13 7 ESE 1020,5 37 60 0,0
16.09.2018 09:00:00 14,7 7,5 10,8 20,0 19,9 6 4 10 5 ENE 1021,0 60 53 0,0
16.09.2018 08:00:00 13,4 6,5 10,9 20,1 19,9 6 4 9 5 ENE 1020,8 59 2 0,0
16.09.2018 07:00:00 13,7 6,3 11,0 20,1 19,9 5 3 11 6 ENE 1020,2 60 0 0,0
16.09.2018 06:00:00 14,4 6,2 10,7 20,2 19,9 6 4 13 7 ENE 1019,9 60 0 0,0
16.09.2018 05:00:00 14,4 6,2 11,6 20,3 20,0 6 3 14 8 NE 1019,9 60 0 0,0
16.09.2018 04:00:00 14,6 6,2 12,0 20,4 20,0 10 5 17 9 ENE 1020,4 60 0 0,0
16.09.2018 03:00:00 15,0 6,0 12,6 20,5 20,0 11 6 24 13 ENE 1020,8 60 0 0,0
16.09.2018 02:00:00 15,9 6,3 13,7 20,6 20,0 16 9 27 15 ENE 1021,2 60 0 0,0
16.09.2018 01:00:00 16,6 6,1 14,1 20,6 20,0 18 10 29 16 ENE 1021,4 60 0 0,0
16.09.2018 00:00:00 17,0 5,9 14,3 20,7 20,0 16 9 25 14 NE 1021,5 60 0 0,0
15.09.2018 23:00:00 17,3 5,9 14,7 20,7 20,0 15 8 21 11 NE 1021,8 60 0 0,0
15.09.2018 22:00:00 18,6 5,8 16,4 20,7 20,0 13 7 19 10 NNE 1021,7 60 0 0,0
15.09.2018 21:00:00 19,3 6,4 16,8 20,7 20,0 13 7 16 9 NNE 1021,5 60 0 0,0
15.09.2018 20:00:00 20,6 6,5 18,1 20,6 20,0 13 7 23 12 NE 1021,2 60 33 0,0
15.09.2018 19:00:00 22,8 6,1 22,5 20,5 20,0 16 9 29 15 NE 1020,5 59 60 0,0
15.09.2018 18:00:00 23,7 6,9 26,4 20,3 20,0 15 8 28 15 NE 1020,4 46 60 0,0
15.09.2018 17:00:00 23,6 5,5 27,8 20,1 20,0 14 8 31 17 NE 1020,9 47 60 0,0
15.09.2018 16:00:00 23,4 5,8 29,5 20,0 20,0 17 9 31 17 NE 1021,1 46 60 0,0
15.09.2018 15:00:00 22,6 8,3 29,6 20,0 20,0 16 9 32 18 NE 1021,6 45 60 0,0
15.09.2018 14:00:00 21,9 8,4 27,5 19,9 20,0 16 9 34 19 NE 1022,1 42 60 0,0
15.09.2018 13:00:00 20,8 8,1 27,2 19,9 20,0 18 10 32 18 NE 1023,0 45 60 0,0
15.09.2018 12:00:00 19,5 8,2 26,3 19,9 20,0 17 9 27 15 NE 1023,7 50 60 0,0
15.09.2018 11:00:00 17,3 9,0 20,6 20,0 20,0 13 7 23 12 ENE 1024,1 56 60 0,0
15.09.2018 10:00:00 15,1 8,3 13,5 20,1 20,0 16 8 28 15 ENE 1024,5 53 60 0,0
15.09.2018 09:00:00 13,2 7,8 9,7 20,2 20,0 10 5 16 9 ENE 1024,3 27 60 0,0
15.09.2018 08:00:00 11,6 7,1 9,1 20,4 20,0 8 5 12 7 NE 1024,3 51 5 0,0
15.09.2018 07:00:00 12,1 7,0 9,6 20,5 20,0 9 5 20 11 NNE 1023,9 60 0 0,0
15.09.2018 06:00:00 12,8 7,2 10,3 20,6 20,0 12 7 19 11 N 1023,6 60 0 0,0
15.09.2018 05:00:00 13,0 7,7 10,4 20,7 20,0 9 5 16 8 NNE 1023,5 60 0 0,0
15.09.2018 04:00:00 13,6 7,4 11,5 20,8 20,0 10 5 17 9 NNE 1023,6 60 0 0,0
15.09.2018 03:00:00 14,2 7,9 12,0 20,8 20,0 11 6 20 11 NNE 1023,4 60 0 0,0
15.09.2018 02:00:00 14,6 8,3 12,6 21,0 20,0 14 8 26 14 NNE 1023,6 60 0 0,0
15.09.2018 01:00:00 15,2 8,4 13,4 21,0 20,0 14 8 31 17 NNE 1023,5 60 0 0,0
15.09.2018 00:00:00 15,7 8,2 13,6 21,1 20,0 14 8 28 15 N 1023,2 60 0 0,0
14.09.2018 23:00:00 16,5 8,7 14,4 21,1 20,0 12 7 23 13 N 1022,8 60 0 0,0
14.09.2018 22:00:00 16,8 9,2 14,3 21,1 20,0 10 6 21 11 N 1022,6 60 0 0,0
14.09.2018 21:00:00 17,5 10,1 15,0 21,1 20,0 9 5 14 8 N 1021,8 60 0 0,0
14.09.2018 20:00:00 19,1 10,9 18,0 21,0 20,0 6 4 18 10 N 1021,0 60 11 0,0
14.09.2018 19:00:00 20,3 11,2 21,2 21,0 20,0 11 6 20 11 NNE 1020,6 59 56 0,0
14.09.2018 18:00:00 21,4 11,7 24,1 20,9 20,0 14 8 27 15 N 1020,3 36 50 0,0
14.09.2018 17:00:00 21,2 11,5 25,1 20,8 20,0 9 5 22 12 NNW 1020,3 58 12 0,0
14.09.2018 16:00:00 21,2 11,8 22,7 20,8 20,0 11 6 25 13 N 1020,2 50 33 0,0
14.09.2018 15:00:00 20,2 12,9 23,9 20,8 20,0 10 6 21 11 NNW 1020,6 52 21 0,0
14.09.2018 14:00:00 19,7 12,9 22,1 20,8 20,0 9 5 25 13 N 1021,1 48 12 0,0
14.09.2018 13:00:00 18,1 14,0 19,5 20,7 20,0 13 7 21 12 NNE 1021,5 20 0 0,0
14.09.2018 12:00:00 17,5 14,8 19,0 20,7 20,0 10 5 18 10 N 1021,5 12 0 0,0
14.09.2018 11:00:00 18,5 14,2 22,9 20,8 20,0 8 4 21 11 NE 1021,1 17 50 0,0
14.09.2018 10:00:00 17,7 14,2 18,5 20,9 20,0 11 6 20 11 E 1021,0 11 60 0,0
14.09.2018 09:00:00 15,8 14,5 14,2 20,9 19,9 10 5 16 9 NNE 1021,0 9 26 0,0
14.09.2018 08:00:00 14,1 13,5 12,3 21,0 20,0 9 5 12 7 NNW 1021,0 7 0 0,0
14.09.2018 07:00:00 13,8 13,0 12,3 21,1 20,0 11 6 20 11 WNW 1020,8 7 0 0,0
14.09.2018 06:00:00 14,5 13,5 13,4 21,2 20,0 9 5 18 10 NNE 1020,5 10 0 0,0
14.09.2018 05:00:00 15,0 13,7 13,2 21,3 19,9 6 3 14 7 N 1020,6 15 0 0,0
14.09.2018 04:00:00 15,4 13,9 14,9 21,3 20,0 10 5 19 11 N 1020,7 20 0 0,0
14.09.2018 03:00:00 15,5 14,4 15,1 21,4 20,0 11 6 23 12 N 1021,1 20 0 0,0
14.09.2018 02:00:00 15,8 14,3 15,4 21,5 20,0 13 7 23 13 N 1021,0 36 0 0,0
14.09.2018 01:00:00 16,2 14,9 15,8 21,5 19,9 11 6 22 12 N 1021,2 27 0 0,0
14.09.2018 00:00:00 16,6 15,3 16,2 21,5 20,0 11 6 21 11 N 1020,9 22 0 0,0
13.09.2018 23:00:00 17,0 15,9 16,6 21,6 19,9 10 6 21 11 NNW 1020,6 14 0 0,0
13.09.2018 22:00:00 17,3 15,8 16,6 21,6 20,0 11 6 22 12 N 1020,4 19 0 0,0
13.09.2018 21:00:00 17,5 15,8 16,8 21,5 19,9 10 5 21 12 NW 1019,9 15 0 0,4
13.09.2018 20:00:00 18,7 15,8 17,3 21,5 19,9 11 6 18 10 NNW 1019,4 34 0 1,0
13.09.2018 19:00:00 20,7 15,0 17,7 21,4 20,0 8 5 19 10 WNW 1019,0 3,9 0 0,0
13.09.2018 18:00:00 22,2 13,8 23,2 21,3 19,9 11 6 21 11 WSW 1018,7 41 21 0,0
13.09.2018 17:00:00 23,1 13,8 26,8 21,3 20,0 11 6 26 14 W 1018,9 44 19 0,0
13.09.2018 16:00:00 22,7 13,7 25,5 21,1 19,9 10 6 20 11 WNW 1019,2 20 13 0,0
13.09.2018 15:00:00 22,7 14,0 30,1 21,0 19,9 6 3 22 12 NW 1019,6 49 37 0,0
13.09.2018 14:00:00 22,1 14,7 28,6 21,0 19,9 7 4 20 11 WSW 1019,9 31 57 0,0
13.09.2018 13:00:00 20,3 14,9 25,2 21,0 19,9 8 4 21 12 SW 1020,5 18 45 0,0
13.09.2018 12:00:00 17,2 14,5 19,3 21,0 19,9 9 5 16 9 SSW 1021,3 18 13 0,0
13.09.2018 11:00:00 15,6 14,0 17,9 21,2 19,9 8 4 17 9 SW 1021,4 10 0 0,0
13.09.2018 10:00:00 16,0 14,0 17,2 21,2 19,9 8 4 14 8 SW 1020,6 15 26 0,0
13.09.2018 09:00:00 16,0 13,8 15,8 21,3 19,9 7 4 11 6 WSW 1020,3 19 14 0,0
13.09.2018 08:00:00 15,9 13,7 14,6 21,4 19,9 4 2 14 7 WSW 1019,9 20 0 0,0
13.09.2018 07:00:00 15,8 13,6 13,6 21,5 19,9 9 5 17 9 W 1019,6 24 0 0,0
13.09.2018 06:00:00 16,2 13,7 14,5 21,5 19,9 16 9 22 12 W 1019,5 26 0 0,0
13.09.2018 05:00:00 17,5 13,8 15,8 21,6 19,9 15 8 22 12 W 1019,2 27 0 0,0
13.09.2018 04:00:00 18,6 14,1 15,0 21,7 19,9 11 6 16 9 W 1018,9 31 0 0,0
13.09.2018 03:00:00 18,6 14,1 14,8 21,7 19,9 3 2 16 9 NNW 1019,1 35 0 0,0
13.09.2018 02:00:00 19,7 14,1 16,1 21,8 19,9 9 5 18 10 NNW 1019,1 35 0 0,0
13.09.2018 01:00:00 20,2 14,3 18,0 21,9 19,9 13 7 17 9 W 1019,6 42 0 0,0
13.09.2018 00:00:00 21,6 13,8 17,7 21,9 19,9 10 5 17 9 W 1019,7 48 0 0,0
12.09.2018 23:00:00 22,9 13,7 18,0 21,9 19,9 8 5 15 8 W 1019,6 51 0 0,0
12.09.2018 22:00:00 23,1 13,3 18,2 21,9 19,9 8 4 17 9 NW 1019,6 56 0 0,0
12.09.2018 21:00:00 24,0 13,2 19,3 21,8 19,9 6 3 16 9 WNW 1018,9 57 0 0,0
12.09.2018 20:00:00 25,8 13,6 22,9 21,7 19,9 10 5 18 10 W 1018,4 60 39 0,0
12.09.2018 19:00:00 27,5 14,2 25,7 21,6 19,9 5 3 11 6 W 1018,0 53 19 0,0
12.09.2018 18:00:00 27,1 13,8 26,5 21,4 19,9 8 4 27 14 WNW 1018,2 55 36 0,0

tt = Température de l'air
td = dewpoint
tt 5cm = Température de l'air 5cm
tt -20cm = Température de l'air -20cm
tt -100cm = Température de l'air -100cm
ff = Vitesse du vent
fx = gusts
dd = Direction du vent
ppp = reduced air pressure
vv = visibility
sd = Ensoleillement
rr = Quantités de précipitations

stations d'obs. à proximité